[[{"header":{"parameterUnit":"m.s-1","parameterCategory":1,"la1":30.2991,"la2":30.254,"lo1":-89.0895,"lo2":-89.0444,"dy":0.0017,"dx":0.0017,"nx":28,"ny":28,"refTime":"2024-05-10T21:00:00:Z","depth":0,"parameterNumber":2,"parameterNumberName":"U-component_of_WINDS"},"data":[0,0,0,0,0,0,0,0,0,0,0,0,0,0,0,0,0,0,0,0,0,0,0,0,0,0,0,0,0,0,0,0,0,0,0,0,0,0,0,0,0,0,0,0,0,0,0,0,0,0,0,0,0,0,0,0,0,0,-1.4627,-1.4626,0,-1.4519,-1.4518,-1.4517,-1.4417,-1.4415,-1.4414,-1.4413,-1.4304,-1.4302,-1.43,0,0,0,0,0,0,0,0,0,0,0,0,0,-1.4748,-1.4746,-1.4627,-1.4626,-1.4624,-1.4519,-1.4518,-1.4517,-1.4417,-1.4415,-1.4414,-1.4413,-1.4304,-1.4302,-1.43,0,0,0,0,0,0,0,0,0,0,0,0,0,-1.4673,-1.4745,-1.4627,-1.4562,-1.4555,-1.452,-1.4518,-1.4516,-1.4417,-1.4415,-1.4414,-1.4412,-1.4305,-1.4303,-1.43,-1.4321,0,0,-1.4292,-1.4291,0,0,0,0,0,0,0,0,-1.4678,-1.4669,-1.4573,-1.4566,-1.4559,-1.4479,-1.452,-1.4451,-1.4418,-1.447,-1.4413,-1.4411,-1.4364,-1.4356,-1.434,-1.4316,-1.4311,-1.4292,-1.429,-1.4289,-1.4288,0,0,0,0,0,0,0,-1.4683,-1.4673,-1.4584,-1.4572,-1.4563,-1.4538,-1.4526,-1.4507,-1.4429,-1.4465,-1.4457,-1.4446,-1.436,-1.4343,-1.4337,-1.4309,-1.4292,-1.4289,-1.4288,-1.4287,-1.4297,-1.4299,0,0,0,0,0,0,-1.4698,-1.4678,-1.4588,-1.4581,-1.4615,-1.4538,-1.4524,-1.4507,-1.4428,-1.4415,-1.4448,-1.4442,-1.4348,-1.434,-1.4333,-1.4352,-1.4289,-1.4286,-1.4285,-1.4296,-1.4298,-1.43,0,0,0,0,0,0,-1.4701,-1.4691,-1.4592,-1.4627,-1.4613,-1.4538,-1.452,-1.4506,-1.4489,-1.4415,-1.4401,-1.4445,-1.4347,-1.4336,-1.4325,-1.4347,-1.4285,-1.4283,-1.4293,-1.4296,-1.4299,-1.4393,0,0,0,0,0,0,-1.4705,-1.4692,-1.4699,-1.4628,-1.4612,-1.4586,-1.4521,-1.4505,-1.4484,-1.4476,-1.4409,-1.4396,-1.4344,-1.4329,-1.4322,-1.4343,-1.4281,-1.4291,-1.4295,-1.4298,-1.4387,-1.4398,-1.4408,0,0,0,0,0,-1.4709,-1.473,-1.47,-1.469,-1.4619,-1.4587,-1.4578,-1.4517,-1.4487,-1.4493,-1.4446,-1.4398,-1.4346,-1.4329,-1.432,-1.434,-1.4289,-1.4294,-1.4298,-1.4382,-1.4396,-1.4407,0,0,0,0,0,0,-1.4806,-1.472,-1.4686,-1.4684,-1.4644,-1.4571,-1.4577,-1.4533,-1.4501,-1.4495,-1.4421,-1.4407,-1.4404,-1.437,-1.4353,-1.4357,-1.4311,-1.4314,-1.4379,-1.4391,-1.4401,-1.441,-1.4279,0,0,0,0,0,-1.4827,-1.4809,-1.4734,-1.474,-1.4721,-1.4653,-1.4637,-1.4594,-1.455,-1.4532,-1.4484,-1.4443,-1.4417,-1.4402,-1.4374,-1.4382,-1.4366,-1.4391,-1.4401,-1.441,-1.4414,-1.4416,-1.4427,-1.4314,-1.4314,-1.4313,0,0,-1.487,-1.4821,-1.4814,-1.4758,-1.4722,-1.4705,-1.4639,-1.4624,-1.4611,-1.453,-1.4516,-1.448,-1.4429,-1.4427,-1.4424,-1.4399,-1.4441,-1.4416,-1.4423,-1.4422,-1.4422,-1.4432,-1.4442,-1.4316,-1.4316,-1.4315,0,0,-1.4941,-1.4901,-1.4902,-1.4867,-1.4813,-1.4768,-1.4768,-1.4701,-1.4674,-1.4659,-1.4598,-1.4582,-1.4538,-1.4505,-1.4483,-1.4542,-1.4497,-1.4535,-1.4589,-1.4592,-1.4601,-1.4608,-1.463,-1.4639,-1.4538,-1.4538,-1.4538,0,-1.5002,-1.4973,-1.4908,-1.4896,-1.4874,-1.48,-1.48,-1.477,-1.471,-1.4697,-1.467,-1.4615,-1.4575,-1.4565,-1.458,-1.4564,-1.4562,-1.4542,-1.4605,-1.4612,-1.4618,-1.4638,-1.4646,-1.4543,-1.4543,-1.4542,-1.4542,0,-1.5051,-1.5033,-1.504,-1.4984,-1.4962,-1.4957,-1.4891,-1.4877,-1.4836,-1.4794,-1.478,-1.473,-1.4691,-1.4686,-1.4645,-1.467,-1.4657,-1.4618,-1.4571,-1.4635,-1.4653,-1.466,-1.4551,-1.4549,-1.4547,-1.4546,0,0,-1.518,-1.5088,-1.5092,-1.5066,-1.5001,-1.4986,-1.4977,-1.4939,-1.4929,-1.489,-1.4882,-1.4848,-1.4812,-1.4787,-1.4742,-1.4745,-1.4796,-1.4706,-1.4704,-1.4725,-1.4821,-1.4852,-1.4862,-1.4766,-1.4767,-1.4768,-1.4826,0,-1.5241,-1.5221,-1.5162,-1.5161,-1.5143,-1.5072,-1.5065,-1.5025,-1.4985,-1.4965,-1.4921,-1.4898,-1.4852,-1.4837,-1.4836,-1.479,-1.4814,-1.4785,-1.4758,-1.4758,-1.4774,-1.487,-1.4902,-1.4959,-1.4832,-1.4834,-1.4834,0,-1.5308,-1.5274,-1.5272,-1.5208,-1.5199,-1.5193,-1.5154,-1.5135,-1.5089,-1.5059,-1.5032,-1.4982,-1.497,-1.4926,-1.4909,-1.489,-1.4876,-1.4852,-1.4852,-1.4848,-1.4801,-1.487,-1.4976,-1.4986,-1.4844,-1.4844,-1.4843,0,-1.5404,-1.5357,-1.535,-1.5329,-1.5255,-1.5253,-1.5222,-1.5173,-1.5155,-1.512,-1.5108,-1.5073,-1.5054,-1.5028,-1.4971,-1.4944,-1.4961,-1.4912,-1.4937,-1.4939,-1.4945,-1.4945,-1.5051,-1.4934,-1.4934,-1.4934,-1.4934,0,-1.5478,-1.548,-1.5392,-1.5387,-1.5387,-1.5319,-1.5321,-1.5283,-1.524,-1.5228,-1.5164,-1.5154,-1.5078,-1.5059,-1.5014,-1.5008,-1.4999,-1.4976,-1.4965,-1.4983,-1.4986,-1.4973,-1.4968,-1.4936,-1.4936,-1.4935,-1.4935,0,-1.5585,-1.5526,-1.5514,-1.5444,-1.5427,-1.543,-1.537,-1.5364,-1.532,-1.5305,-1.5298,-1.5229,-1.5204,-1.5144,-1.5102,-1.5072,-1.5078,-1.5056,-1.5094,-1.5087,-1.5116,-1.5115,-1.5218,-1.5229,-1.5105,-1.5106,-1.5107,0,-1.5637,-1.5637,-1.5567,-1.5554,-1.5526,-1.5505,-1.5486,-1.5419,-1.5401,-1.5349,-1.5349,-1.5318,-1.529,-1.5253,-1.52,-1.5169,-1.5146,-1.5184,-1.5141,-1.5159,-1.5148,-1.5149,-1.5149,-1.5194,-1.5196,-1.5197,-1.5198,0,-1.5736,-1.5707,-1.5681,-1.5645,-1.5624,-1.5592,-1.5557,-1.5551,-1.5476,-1.5459,-1.5432,-1.5411,-1.5369,-1.534,-1.53,-1.5268,-1.5222,-1.5213,-1.5217,-1.5236,-1.5259,-1.5248,-1.5121,-1.5211,-1.5209,-1.5209,-1.5208,-1.5207,-1.5817,-1.5814,-1.5765,-1.5738,-1.5705,-1.5674,-1.5665,-1.562,-1.5596,-1.5557,-1.5519,-1.5496,-1.545,-1.5392,-1.5364,-1.5345,-1.5321,-1.5327,-1.5329,-1.5332,-1.5341,-1.5261,-1.5338,-1.5337,-1.5337,-1.5336,-1.5336,0,-1.5914,-1.5879,-1.5855,-1.5808,-1.5788,-1.5745,-1.5704,-1.569,-1.5671,-1.5631,-1.5605,-1.5575,-1.5547,-1.5492,-1.5459,-1.5455,-1.5433,-1.5449,-1.5449,-1.5443,-1.5363,-1.5363,-1.5467,-1.5467,-1.5467,-1.5467,-1.5467,-1.5467,-1.5962,-1.5954,-1.5919,-1.5894,-1.5859,-1.5836,-1.5817,-1.5788,-1.5757,-1.5726,-1.5702,-1.5666,-1.562,-1.5584,-1.5556,-1.5541,-1.5532,-1.5555,-1.5533,-1.546,-1.5448,-1.5436,-1.5436,-1.5554,-1.5554,-1.5614,-1.5615,-1.5615]},{"header":{"parameterUnit":"m.s-1","parameterCategory":1,"la1":30.2991,"la2":30.254,"lo1":-89.0895,"lo2":-89.0444,"dy":0.0017,"dx":0.0017,"nx":28,"ny":28,"refTime":"2024-05-10T21:00:00:Z","depth":0,"parameterNumber":3,"parameterNumberName":"V-component_of_WINDS"},"data":[0,0,0,0,0,0,0,0,0,0,0,0,0,0,0,0,0,0,0,0,0,0,0,0,0,0,0,0,0,0,0,0,0,0,0,0,0,0,0,0,0,0,0,0,0,0,0,0,0,0,0,0,0,0,0,0,0,0,-1.0864,-1.0864,0,-1.0895,-1.0896,-1.0896,-1.0891,-1.0891,-1.089,-1.089,-1.0921,-1.0923,-1.0924,0,0,0,0,0,0,0,0,0,0,0,0,0,-1.0801,-1.0802,-1.0864,-1.0864,-1.0865,-1.0895,-1.0896,-1.0896,-1.0891,-1.0891,-1.089,-1.0889,-1.0921,-1.0923,-1.0924,0,0,0,0,0,0,0,0,0,0,0,0,0,-1.083,-1.0802,-1.0864,-1.0866,-1.0867,-1.0895,-1.0896,-1.0896,-1.0891,-1.0891,-1.089,-1.0889,-1.092,-1.0922,-1.0924,-1.0952,0,0,-1.093,-1.0931,0,0,0,0,0,0,0,0,-1.0828,-1.0832,-1.0865,-1.0866,-1.0867,-1.0889,-1.0885,-1.0915,-1.0892,-1.0882,-1.089,-1.0889,-1.0911,-1.0914,-1.0921,-1.0954,-1.0955,-1.0931,-1.0932,-1.0933,-1.0933,0,0,0,0,0,0,0,-1.0826,-1.0831,-1.0876,-1.0866,-1.0867,-1.0866,-1.0869,-1.089,-1.0901,-1.0883,-1.0883,-1.0886,-1.0911,-1.0919,-1.0922,-1.0956,-1.0931,-1.0932,-1.0934,-1.0934,-1.1014,-1.1015,0,0,0,0,0,0,-1.0823,-1.0829,-1.0875,-1.0877,-1.0845,-1.0867,-1.0871,-1.0882,-1.09,-1.0902,-1.0887,-1.0886,-1.0916,-1.092,-1.0923,-1.0958,-1.0933,-1.0935,-1.0936,-1.1013,-1.1014,-1.1015,0,0,0,0,0,0,-1.0822,-1.0828,-1.0874,-1.0853,-1.0859,-1.0869,-1.0882,-1.0883,-1.0892,-1.0903,-1.0905,-1.0894,-1.0916,-1.092,-1.0945,-1.0959,-1.0935,-1.0937,-1.1012,-1.1013,-1.1014,-1.1028,0,0,0,0,0,0,-1.082,-1.0827,-1.0838,-1.0853,-1.086,-1.0896,-1.0883,-1.0885,-1.0895,-1.0894,-1.091,-1.0912,-1.0916,-1.0942,-1.0947,-1.0962,-1.0939,-1.1011,-1.1012,-1.1014,-1.1026,-1.103,-1.1033,0,0,0,0,0,-1.0818,-1.084,-1.0839,-1.0844,-1.0874,-1.0897,-1.0901,-1.0904,-1.0896,-1.0907,-1.0915,-1.0911,-1.0956,-1.0945,-1.0951,-1.0966,-1.101,-1.1012,-1.1014,-1.1025,-1.1029,-1.1032,0,0,0,0,0,0,-1.0826,-1.0842,-1.0841,-1.0869,-1.0881,-1.0896,-1.091,-1.0908,-1.0924,-1.0922,-1.0926,-1.093,-1.0955,-1.0963,-1.095,-1.0994,-1.0982,-1.0985,-1.0989,-1.0993,-1.0996,-1.0994,-1.094,0,0,0,0,0,-1.0831,-1.0849,-1.0862,-1.0885,-1.0892,-1.09,-1.091,-1.0912,-1.0925,-1.093,-1.094,-1.0953,-1.097,-1.0981,-1.0998,-1.1027,-1.1031,-1.104,-1.1043,-1.1045,-1.1049,-1.1066,-1.107,-1.1022,-1.1022,-1.1022,0,0,-1.0842,-1.0853,-1.0864,-1.0887,-1.0897,-1.0915,-1.0904,-1.0924,-1.0937,-1.0933,-1.0958,-1.0965,-1.098,-1.1008,-1.102,-1.1015,-1.1063,-1.1048,-1.105,-1.1052,-1.1068,-1.1073,-1.1077,-1.1023,-1.1023,-1.1023,0,0,-1.0871,-1.0881,-1.0902,-1.0912,-1.0928,-1.0933,-1.0938,-1.0953,-1.0958,-1.0982,-1.098,-1.0996,-1.1025,-1.1036,-1.1046,-1.1079,-1.1077,-1.1084,-1.11,-1.1117,-1.1121,-1.1124,-1.1137,-1.1142,-1.1087,-1.1087,-1.1087,0,-1.0883,-1.091,-1.0913,-1.0933,-1.0944,-1.0941,-1.0962,-1.0972,-1.0992,-1.1,-1.0993,-1.103,-1.1039,-1.107,-1.1078,-1.1085,-1.1092,-1.1083,-1.112,-1.1123,-1.1126,-1.1139,-1.1144,-1.1088,-1.1087,-1.1087,-1.1087,0,-1.0924,-1.0943,-1.0958,-1.0978,-1.099,-1.1011,-1.1017,-1.1029,-1.1029,-1.1035,-1.1061,-1.1072,-1.1091,-1.1098,-1.1098,-1.1129,-1.1125,-1.1119,-1.1107,-1.1132,-1.1144,-1.1149,-1.1089,-1.1088,-1.1088,-1.1088,0,0,-1.0961,-1.0982,-1.0987,-1.0997,-1.1013,-1.1028,-1.1048,-1.1067,-1.1078,-1.1091,-1.1109,-1.1134,-1.1128,-1.1139,-1.1141,-1.1155,-1.1182,-1.1147,-1.1147,-1.1154,-1.1217,-1.1223,-1.1229,-1.118,-1.1181,-1.1181,-1.1216,0,-1.0993,-1.1029,-1.1033,-1.1066,-1.1084,-1.1081,-1.1099,-1.1111,-1.1117,-1.1133,-1.1139,-1.1157,-1.1148,-1.1154,-1.1168,-1.1176,-1.1195,-1.1173,-1.1197,-1.1198,-1.1195,-1.1235,-1.1241,-1.1273,-1.1221,-1.1222,-1.1222,0,-1.1035,-1.1051,-1.1086,-1.1101,-1.1108,-1.1124,-1.1142,-1.1157,-1.1171,-1.1174,-1.1186,-1.1186,-1.1207,-1.1193,-1.1223,-1.1208,-1.1218,-1.1223,-1.1224,-1.1228,-1.1213,-1.1241,-1.1284,-1.1289,-1.1229,-1.1229,-1.1228,0,-1.106,-1.109,-1.1115,-1.1122,-1.114,-1.1151,-1.1159,-1.1172,-1.1183,-1.1198,-1.1206,-1.1223,-1.1233,-1.1246,-1.1251,-1.124,-1.1281,-1.1267,-1.1285,-1.1285,-1.1295,-1.1295,-1.1342,-1.1299,-1.1298,-1.1298,-1.1298,0,-1.1097,-1.1119,-1.1126,-1.1142,-1.1167,-1.1169,-1.1194,-1.1201,-1.1212,-1.1229,-1.1227,-1.1243,-1.1247,-1.1263,-1.1267,-1.1292,-1.1296,-1.1299,-1.13,-1.1301,-1.13,-1.1308,-1.1307,-1.13,-1.1299,-1.1299,-1.1299,0,-1.113,-1.1136,-1.1163,-1.1177,-1.1181,-1.1199,-1.1211,-1.1226,-1.1231,-1.1253,-1.1258,-1.1266,-1.1286,-1.1291,-1.1314,-1.1316,-1.1346,-1.1344,-1.1342,-1.1342,-1.1361,-1.1359,-1.1416,-1.1424,-1.1374,-1.1374,-1.1375,0,-1.1154,-1.1171,-1.1187,-1.1198,-1.1207,-1.1225,-1.1236,-1.1239,-1.1252,-1.1268,-1.1282,-1.1301,-1.1317,-1.1348,-1.1356,-1.1374,-1.1373,-1.1392,-1.1376,-1.1376,-1.1376,-1.1375,-1.1378,-1.1396,-1.1396,-1.1396,-1.1397,0,-1.1196,-1.1198,-1.1215,-1.1233,-1.1247,-1.1261,-1.1275,-1.1284,-1.1289,-1.1303,-1.1323,-1.1335,-1.1359,-1.1379,-1.1396,-1.1404,-1.1402,-1.1401,-1.1407,-1.1408,-1.1407,-1.141,-1.1352,-1.1401,-1.14,-1.14,-1.14,-1.14,-1.1226,-1.1242,-1.1256,-1.1275,-1.1285,-1.1298,-1.1313,-1.132,-1.1337,-1.1357,-1.1358,-1.138,-1.1393,-1.1417,-1.1426,-1.1443,-1.1438,-1.1445,-1.1447,-1.145,-1.1452,-1.1403,-1.1446,-1.1446,-1.1446,-1.1446,-1.1446,0,-1.127,-1.1279,-1.1296,-1.1316,-1.1331,-1.1326,-1.1341,-1.1354,-1.1374,-1.1386,-1.1402,-1.1425,-1.1444,-1.1453,-1.1472,-1.1484,-1.1483,-1.1489,-1.1489,-1.1491,-1.1455,-1.1449,-1.1489,-1.1489,-1.1489,-1.1489,-1.1489,-1.1489,-1.1295,-1.1321,-1.1325,-1.1356,-1.1364,-1.1386,-1.1395,-1.1407,-1.1417,-1.1444,-1.1459,-1.1465,-1.1477,-1.1496,-1.1513,-1.1515,-1.1523,-1.153,-1.1531,-1.1498,-1.1494,-1.1489,-1.1484,-1.1531,-1.1531,-1.1566,-1.1567,-1.1567]}]]